Location: *
(48.8489°N, 2.3218°E)
Time: 20:18:16
(UTC+00:00)

Cosmos 1025 Rocket - Pass Details

Date: 23 August 2019
Orbit: 594 x 619 km, 82.5° (Epoch: 22 October)

Event Time Altitude Azimuth Distance (km) Brightness Sun altitude
Rises 21:37:45 0° 353° (N) 2,892 7.5 -22.8°
Reaches altitude 10° 21:40:01 10° 357° (N) 1,979 6.4 -23.1°
Enters shadow 21:44:08 58° 63° (ENE) 715 3.2 -23.4°
